Wind_Speed
25 22 22 20 19 18 18 19 20 20 20 19 18 18 17 17 16 16 16 15 15 15 15 15 16 16 17 17 18 18 17 17 16 16 16 16 16 15 15 16 16 16 15 15 14 13 12 12 11 11 10 10 9 8 8 8 8 7 7 6 6 6 6
28 25 26 25 22 20 18 17 18 18 18 18 17 17 16 16 16 15 15 15 15 15 15 15 15 16 17 17 17 17 17 17 17 17 16 16 15 15 14 14 14 14 14 13 13 13 12 12 11 11 10 10 10 9 8 8 7 7 7 7 7 7 7
28 27 27 27 24 21 20 19 18 18 17 15 14 15 15 15 15 15 15 15 15 14 14 15 15 15 16 16 16 16 17 17 18 18 18 17 17 16 14 13 13 13 12 12 12 12 12 12 11 11 11 10 10 9 9 8 8 8 8 8 8 7 7
29 29 30 29 26 23 22 22 21 19 17 14 14 14 15 15 15 15 15 15 16 15 15 15 15 15 16 16 16 16 17 17 18 18 18 18 18 17 16 15 14 13 12 12 12 12 12 12 11 11 11 11 10 10 9 9 8 8 8 8 8 8 7
26 29 30 28 26 25 24 25 24 21 18 16 15 15 15 15 15 16 16 16 16 16 15 14 14 15 16 16 17 17 17 17 17 17 17 17 18 18 17 16 15 14 13 12 12 12 12 12 12 12 11 11 11 10 10 9 9 8 8 8 8 8 8
20 22 25 26 26 26 25 25 24 23 21 19 17 15 14 14 14 15 16 16 15 15 14 14 14 15 15 16 17 17 17 17 17 16 16 16 17 17 17 16 16 15 14 13 13 13 12 12 12 12 12 12 11 11 10 9 9 8 8 8 8 8 8
21 21 22 23 25 27 26 25 24 23 23 20 18 17 16 15 15 15 15 15 15 16 16 17 18 18 17 17 17 17 17 17 17 17 17 16 16 16 16 16 16 16 15 14 13 13 13 13 12 12 12 12 11 11 10 9 9 9 9 9 9 9 9
23 23 23 23 24 25 26 27 26 25 24 21 19 18 18 18 18 16 15 16 17 18 19 21 21 21 20 19 19 19 19 19 18 18 18 18 17 17 17 17 16 16 16 15 14 13 13 13 13 12 12 12 11 11 10 10 9 9 10 10 10 10 10
24 24 24 24 24 24 23 25 26 26 26 23 19 19 19 18 17 16 16 17 17 18 20 21 21 21 20 20 20 20 19 18 18 18 19 19 19 20 19 19 18 17 17 16 14 13 12 12 12 12 12 12 11 11 10 9 9 9 10 10 11 11 11
25 26 26 25 25 24 23 24 25 25 24 22 19 18 18 18 17 18 20 21 21 21 21 20 20 20 20 20 20 19 18 17 18 18 19 20 21 21 21 21 20 19 18 17 16 14 12 11 11 12 12 12 11 10 9 9 9 10 10 11 11 12 12
25 25 25 25 24 24 25 25 26 24 22 20 18 18 19 19 19 22 24 24 24 24 23 20 19 20 21 21 20 20 20 21 21 21 21 21 21 22 23 22 22 21 20 19 18 16 14 12 12 12 12 12 11 10 10 10 10 11 11 12 12 12 13
27 25 24 24 24 24 25 25 26 24 21 20 20 20 20 21 22 23 24 23 22 23 22 21 21 23 24 24 21 21 22 24 23 22 21 21 21 22 23 23 23 23 22 20 19 18 16 15 14 13 13 13 12 11 11 11 11 12 12 12 13 13 13
27 27 25 25 24 25 26 25 25 23 22 22 22 22 22 23 23 22 22 22 21 21 20 21 25 27 28 26 24 24 26 27 25 22 21 22 23 23 23 23 24 24 24 23 22 20 19 18 17 16 15 14 14 13 13 12 13 13 13 13 13 13 14
27 27 27 27 27 28 29 28 26 23 21 20 20 21 22 23 23 22 22 22 22 20 18 19 23 26 27 28 27 28 30 30 28 26 25 26 26 25 24 24 25 26 26 25 24 23 22 21 20 19 18 16 16 15 14 14 14 15 14 14 14 14 14
29 28 28 28 28 28 29 29 27 26 23 19 17 18 20 22 23 23 23 23 24 23 20 19 20 21 23 27 30 31 31 31 31 29 29 29 28 26 26 26 27 28 28 26 25 24 23 22 21 21 20 19 18 17 16 16 16 16 16 15 14 14 14
30 30 29 29 28 27 27 28 28 27 26 22 19 19 19 21 22 24 25 25 25 25 24 22 21 20 20 22 26 28 28 29 31 31 30 30 30 29 29 28 29 31 30 28 26 25 24 23 22 21 21 21 20 20 18 18 18 18 18 17 16 15 14
29 30 30 30 28 27 28 29 29 28 27 26 24 22 21 21 23 24 25 25 25 25 24 24 23 22 21 19 18 21 23 26 29 30 31 31 31 32 32 31 32 34 32 29 27 25 25 24 24 23 22 22 21 21 20 20 21 21 20 20 19 17 16
29 28 28 27 27 26 27 28 29 29 29 28 26 25 23 23 23 23 24 23 23 22 19 19 21 21 19 15 14 15 18 22 25 28 29 30 31 32 32 32 35 35 32 28 26 25 25 25 25 25 24 23 22 22 22 22 22 22 22 22 21 20 19
28 26 25 24 24 25 27 28 28 29 29 28 27 25 24 24 23 24 23 23 24 23 19 18 20 21 19 18 16 15 15 17 21 25 27 29 31 32 32 33 34 32 29 27 26 25 26 27 27 26 25 24 24 24 23 24 24 24 24 24 23 23 21
27 24 23 23 24 25 27 28 29 29 29 28 27 26 25 25 25 25 24 23 23 24 23 21 21 22 22 21 19 16 15 15 17 20 24 28 31 31 31 32 32 29 26 27 26 26 27 28 28 27 27 26 25 25 25 26 26 27 26 26 25 25 24
25 24 23 23 24 26 27 29 30 30 30 29 28 27 27 26 26 26 26 25 24 24 24 23 22 22 23 22 20 17 17 17 17 18 20 24 28 29 30 30 29 26 26 28 28 27 28 29 28 27 27 26 26 26 27 28 29 29 28 27 27 27 26
26 25 24 23 25 27 28 29 29 29 29 29 29 29 29 28 28 27 27 27 26 26 25 24 23 23 23 23 22 20 19 19 19 18 17 20 23 26 27 27 27 27 28 29 28 28 28 28 27 27 26 26 26 27 28 29 30 30 30 29 29 28 28
30 29 27 25 25 27 28 29 29 29 30 30 30 31 31 30 30 30 29 29 28 28 27 26 26 25 25 25 25 24 22 21 20 20 19 19 20 21 23 25 26 27 28 27 27 27 27 28 28 27 27 28 28 28 28 30 31 31 31 31 30 30 29
31 31 29 27 27 27 28 29 29 29 30 30 31 31 31 31 31 30 30 30 29 29 29 28 27 27 26 26 26 26 26 25 23 22 22 22 21 21 21 22 23 24 24 24 24 26 26 26 27 27 28 29 30 30 30 31 31 31 32 33 32 31 30
32 31 31 31 30 30 30 29 29 29 29 30 30 31 31 31 31 30 30 30 29 29 29 29 29 28 27 26 26 26 27 27 27 26 25 25 24 23 22 22 22 21 21 21 23 25 26 25 26 26 27 29 31 32 32 33 33 33 33 33 33 32 31
35 34 34 34 33 33 33 33 32 32 32 32 32 32 33 33 33 32 32 31 30 30 30 30 30 30 29 28 27 26 27 27 28 28 28 27 26 25 25 24 25 24 22 21 21 22 22 23 25 27 28 29 31 32 33 34 36 36 35 35 34 34 33
38 37 36 36 36 37 37 37 37 37 37 37 37 36 35 35 35 34 34 33 32 32 32 32 32 32 31 30 29 28 28 28 28 29 29 29 29 28 28 27 27 27 25 24 23 22 21 22 23 25 28 29 31 32 33 35 37 39 39 37 37 36 35
41 40 40 40 40 40 41 41 41 41 41 41 41 41 40 39 38 37 36 35 34 33 33 33 33 33 33 32 31 30 29 29 28 29 29 29 29 29 29 29 29 30 29 28 26 25 24 24 24 24 25 27 29 30 32 33 35 38 40 40 39 38 36
46 46 46 46 45 45 44 44 43 43 43 43 42 42 42 42 41 40 39 38 36 35 34 33 33 32 32 32 32 32 31 30 30 29 29 29 28 28 29 29 30 30 31 31 30 29 28 27 27 26 26 26 27 29 30 32 33 36 38 40 39 38 36
48 49 49 49 48 47 46 46 45 45 44 44 43 43 42 42 41 41 40 40 39 38 37 36 34 33 33 32 32 32 32 32 32 31 30 30 29 29 29 29 30 30 31 32 32 32 31 30 29 29 29 29 29 29 30 32 33 34 35 36 37 37 35
44 45 46 47 47 47 46 46 45 45 44 44 44 43 43 42 41 41 40 40 40 39 39 38 37 36 35 34 33 33 33 33 33 33 32 32 32 32 32 31 32 32 32 32 32 33 33 33 33 32 32 32 32 32 32 32 33 33 33 33 33 33 33
41 42 43 43 44 44 45 45 45 45 44 44 44 44 44 44 44 43 43 42 42 41 41 40 40 39 38 38 37 37 36 36 36 36 35 35 35 35 35 35 35 34 34 33 33 34 34 35 35 35 35 35 36 36 36 35 34 34 34 33 32 31 31
43 42 43 43 44 45 45 46 46 46 46 46 46 47 47 47 47 46 46 45 45 45 44 44 43 43 42 42 42 41 40 40 40 40 39 39 38 38 38 38 38 38 37 37 36 36 36 37 38 38 38 38 38 38 39 39 38 37 35 34 34 33 33
45 44 44 45 46 47 47 48 48 48 49 49 50 50 50 49 49 48 48 47 47 47 47 46 46 45 45 45 44 44 43 43 43 43 42 42 42 41 41 40 40 41 41 41 40 40 40 40 41 41 41 40 40 40 40 41 42 41 40 39 38 37 37
45 45 45 46 47 48 49 49 49 49 50 51 51 51 51 51 51 50 50 50 49 49 49 49 49 48 48 48 47 47 47 46 46 45 45 46 46 45 45 44 43 43 44 45 45 44 44 44 44 44 44 44 43 43 43 43 44 44 44 43 43 43 42
43 45 46 48 48 49 49 49 49 50 51 51 52 52 52 52 52 52 52 52 52 51 51 51 51 50 50 50 49 49 49 49 49 48 48 48 49 49 48 48 47 47 47 47 48 48 48 48 48 48 48 47 47 47 46 46 46 46 47 47 47 47 47
44 45 46 48 48 49 49 49 49 50 50 51 52 52 52 52 52 52 53 53 53 53 52 52 52 51 51 51 50 50 50 50 50 50 50 50 50 50 50 50 49 49 50 49 49 50 50 50 51 51 51 51 51 51 51 50 50 49 50 50 49 49 49
47 47 46 47 47 48 48 48 48 49 50 50 51 51 51 51 51 51 51 52 52 52 52 52 52 51 51 51 51 51 51 51 51 51 51 51 51 51 51 51 51 51 51 51 51 51 51 51 52 53 53 54 54 54 55 55 54 53 53 53 53 52 52
Wind_Direction
193 190 195 199 197 199 199 196 196 199 201 196 188 187 190 190 185 182 181 181 180 181 182 183 183 184 184 184 186 186 185 183 182 180 177 176 176 176 174 173 171 170 171 172 171 173 174 174 178 180 180 182 185 187 190 191 191 191 193 199 203 202 198
195 193 197 198 193 192 195 200 204 207 210 207 196 191 192 192 190 187 184 183 183 184 187 188 188 189 189 188 188 189 190 188 187 185 183 182 182 183 183 184 181 178 178 179 180 181 181 181 185 187 187 189 190 191 195 199 202 207 210 212 214 215 217
196 195 199 199 194 190 190 196 203 206 209 210 203 197 197 197 194 192 189 187 187 189 192 193 192 193 194 193 192 192 194 194 193 192 189 187 186 187 190 192 192 190 189 189 190 191 189 188 191 191 192 194 194 193 195 200 206 213 218 220 220 221 223
202 199 199 198 195 191 191 193 198 202 201 201 199 194 196 200 197 194 194 192 192 194 195 196 196 196 197 198 198 197 197 199 199 198 196 194 193 193 194 196 200 202 202 202 202 202 199 196 197 197 197 199 199 197 196 199 205 211 217 222 225 226 228
210 205 201 200 196 193 195 195 195 198 197 195 196 193 192 199 200 197 197 197 198 199 198 197 200 202 201 202 203 202 201 202 203 203 202 201 200 200 199 200 203 207 211 212 212 213 211 207 204 203 202 201 201 201 200 201 204 208 214 220 225 229 231
205 201 197 200 200 198 200 198 194 195 197 195 195 195 192 196 202 202 200 199 200 201 201 200 202 206 207 207 208 207 206 205 206 207 206 206 206 206 206 205 205 207 212 215 216 216 218 217 212 208 206 203 202 202 205 208 209 212 217 221 225 230 233
197 197 194 196 200 201 202 200 195 196 199 197 196 199 197 195 202 206 204 202 200 200 203 204 203 203 206 209 210 211 210 209 210 210 210 210 210 211 211 211 212 211 214 216 217 216 218 219 217 212 209 206 204 205 208 212 216 221 226 228 231 234 237
200 200 196 195 199 202 205 205 202 201 200 198 199 206 206 203 204 207 209 211 206 201 204 208 206 204 204 207 209 211 211 211 212 214 215 215 215 215 215 216 218 218 219 221 220 219 219 220 218 214 212 210 210 212 214 217 220 227 234 237 239 242 244
200 202 199 198 200 202 204 204 203 201 199 198 200 207 213 215 215 215 217 224 224 216 212 213 211 209 209 210 212 214 214 214 215 217 219 221 221 220 219 219 220 223 226 228 227 227 226 226 224 220 217 217 219 221 223 225 227 231 237 242 244 246 248
201 205 204 200 199 200 200 200 201 202 200 198 197 203 213 221 224 223 221 224 228 227 224 221 219 216 216 215 215 215 215 216 217 219 221 224 225 226 225 223 222 223 226 230 232 233 233 233 231 229 227 226 228 233 237 240 241 238 238 240 242 243 245
204 203 200 198 199 203 206 206 209 210 208 204 200 203 213 220 225 225 223 223 227 230 229 227 225 225 225 223 220 218 217 216 215 216 218 223 227 229 230 229 227 225 224 227 231 234 236 237 236 233 232 232 234 240 245 248 248 246 242 239 239 238 238
209 205 202 202 204 208 214 218 218 215 209 205 203 205 212 222 227 225 223 227 234 236 234 230 230 230 228 226 224 224 224 224 220 216 217 222 227 230 232 232 232 230 226 224 226 230 233 236 238 237 234 233 234 237 242 245 246 246 244 241 239 238 236
213 212 211 212 213 214 218 221 221 217 211 206 204 206 212 222 228 227 226 232 238 241 242 238 237 237 231 225 223 224 227 228 226 221 220 223 226 228 230 231 232 232 229 225 222 223 224 227 231 235 235 235 235 236 238 241 243 244 244 242 241 241 240
213 214 215 216 218 219 220 221 221 221 218 209 203 208 217 225 231 233 234 237 237 239 242 239 238 239 234 227 226 227 229 230 227 224 223 224 225 226 227 229 229 230 229 227 225 223 224 224 225 228 230 231 233 234 235 237 239 241 242 241 241 242 243
211 211 214 215 218 221 224 226 228 228 226 219 210 214 222 230 235 236 236 236 235 237 240 238 236 239 237 232 228 227 230 231 229 226 225 226 226 225 225 228 230 230 227 225 224 224 225 227 229 230 230 230 230 230 232 235 237 239 240 241 240 239 242
212 211 213 216 218 221 225 229 233 233 231 228 224 223 225 230 234 234 233 233 233 236 240 242 241 242 243 240 232 228 230 232 230 229 229 229 228 227 226 226 230 233 229 224 222 222 223 225 229 232 234 234 233 232 232 233 234 236 237 239 240 239 238
214 213 214 216 217 220 224 228 232 234 233 231 230 229 228 229 233 235 234 232 232 234 240 244 246 243 244 245 237 231 232 233 231 232 233 231 229 228 228 226 227 230 229 225 222 222 224 226 227 229 233 236 238 239 239 239 238 238 237 238 240 239 237
213 211 211 212 213 217 222 226 230 233 234 233 231 229 227 227 230 235 237 234 232 234 240 244 243 240 241 243 239 233 231 232 233 234 233 233 231 229 229 226 224 224 223 222 222 224 227 231 231 231 232 234 237 240 242 245 245 245 244 243 242 242 242
209 211 212 213 214 217 222 227 230 232 233 232 230 227 226 226 228 232 236 235 233 234 239 243 241 240 242 244 241 238 234 234 237 237 235 236 236 233 230 226 223 220 218 219 224 227 229 233 235 235 234 234 235 237 240 244 246 247 246 245 245 245 246
209 212 214 218 220 221 224 228 230 232 232 232 231 229 227 227 229 231 233 234 233 235 238 243 245 245 245 246 247 250 251 247 246 244 242 241 240 235 231 229 227 225 222 225 233 236 236 236 236 236 237 237 238 238 239 242 245 246 246 245 245 245 245
217 217 217 220 223 225 226 227 228 230 231 232 234 233 231 231 233 234 235 235 234 234 235 238 242 243 243 244 246 251 253 249 248 250 249 246 240 234 231 231 232 231 231 235 239 240 239 239 237 236 237 239 241 243 243 243 245 247 248 248 247 247 245
228 228 225 223 223 225 227 228 228 228 230 231 232 234 234 234 235 237 239 240 240 238 236 237 238 239 239 240 241 244 246 244 243 248 250 247 243 238 236 235 235 236 238 241 241 237 236 238 239 240 239 239 241 244 247 248 248 248 250 250 250 250 249
238 236 233 230 225 224 224 227 228 229 230 231 232 233 234 235 236 237 239 242 244 244 243 242 242 241 239 238 238 241 244 244 243 245 247 247 246 245 243 241 240 240 240 240 240 239 239 240 241 244 246 245 244 245 248 250 252 252 253 253 252 251 251
239 235 232 230 227 224 223 225 227 229 231 232 234 235 236 236 237 238 240 242 244 246 248 248 248 247 245 242 239 238 240 242 243 243 245 247 249 250 251 251 250 248 246 244 243 243 244 244 244 244 246 247 247 247 248 250 252 254 255 256 256 254 253
238 233 229 228 227 226 225 226 228 230 232 234 236 237 239 239 239 239 240 241 243 245 247 250 251 251 250 248 246 243 241 241 242 243 245 247 250 252 255 257 258 258 255 253 250 247 247 249 249 248 247 247 248 248 248 249 251 252 253 256 258 258 257
236 232 229 228 229 229 229 231 233 235 236 237 238 239 240 241 242 242 242 242 243 244 245 248 250 252 252 251 250 248 246 244 244 244 244 246 248 251 253 255 257 258 257 256 254 252 251 252 252 252 252 251 250 249 249 248 249 250 250 252 255 258 260
232 230 229 230 232 234 235 236 238 240 242 243 243 242 242 242 243 244 244 245 245 245 246 246 248 249 251 252 251 250 249 247 247 246 245 245 246 248 250 251 254 256 258 257 256 255 255 254 254 254 254 254 254 253 251 249 248 249 250 250 253 256 259
233 236 237 238 239 240 241 241 241 242 244 245 246 245 245 244 244 244 245 246 246 246 246 246 246 247 249 250 251 252 251 250 249 249 248 248 247 248 249 250 251 254 256 258 257 256 256 256 256 257 257 257 257 256 254 253 251 250 250 250 252 254 256
238 242 244 245 245 244 244 245 245 245 244 245 245 246 246 245 245 245 245 246 246 246 245 245 245 246 247 248 249 251 252 252 251 251 251 251 251 251 250 250 251 252 253 255 257 257 256 256 257 258 258 259 258 257 256 255 254 253 252 252 252 254 255
240 243 245 246 247 247 247 247 247 247 246 245 245 245 246 245 245 245 245 245 245 245 245 245 246 246 246 247 248 249 250 252 253 253 253 253 253 253 253 253 252 252 252 253 255 256 256 256 256 256 257 258 259 258 257 255 255 254 254 253 254 254 255
238 240 242 244 247 248 249 248 248 247 247 246 246 246 246 246 245 245 245 245 245 245 245 246 247 247 247 247 247 248 249 251 253 254 255 255 256 256 256 256 255 254 253 253 254 256 256 256 255 255 255 256 257 258 258 257 256 256 256 256 257 257 258
236 237 239 240 242 244 245 246 246 245 246 246 246 245 246 246 246 245 246 246 246 246 246 247 247 248 249 249 249 249 250 251 252 254 255 256 258 259 259 259 258 258 257 256 255 256 256 256 256 255 254 254 255 256 258 259 258 258 259 260 261 262 263
239 238 238 238 238 239 240 241 242 243 244 244 245 245 245 245 246 246 246 246 247 247 248 248 249 249 250 251 252 252 252 253 253 254 254 255 256 258 260 261 262 262 261 260 259 258 258 258 258 257 256 255 254 255 257 258 259 259 260 261 262 264 264
241 240 240 238 238 238 238 239 240 242 243 244 244 245 245 246 246 247 247 247 248 248 249 250 250 250 251 252 252 253 253 254 254 255 255 255 255 255 257 259 261 263 263 263 263 262 261 260 260 259 259 258 257 256 256 257 258 259 259 260 260 261 262
240 241 241 240 240 239 239 240 241 241 242 243 244 245 245 246 246 247 247 248 248 248 249 250 251 251 252 252 253 254 254 255 256 256 257 258 258 257 257 257 258 260 261 262 262 262 262 262 262 261 261 261 260 258 257 257 257 258 258 258 258 258 259
241 241 241 241 241 241 241 241 241 242 243 243 244 245 245 246 246 247 247 248 248 248 249 250 251 252 252 253 253 254 255 256 257 257 258 259 260 260 260 259 258 258 259 260 260 261 262 262 262 262 262 262 261 260 259 258 257 257 257 257 257 257 257
242 241 241 242 242 242 242 242 241 242 243 243 244 245 246 247 247 248 248 248 249 249 249 250 250 251 252 253 253 254 255 255 256 257 258 258 259 260 261 261 260 259 259 259 259 260 260 261 261 261 262 262 262 262 261 260 259 259 259 258 257 257 257
244 243 243 243 243 243 243 243 243 243 243 244 244 245 246 247 248 249 249 250 250 251 251 251 251 251 252 253 253 254 254 254 255 255 255 256 257 258 259 260 260 260 260 260 259 259 259 259 259 260 260 260 261 261 262 262 261 260 260 260 260 259 258
Height
5908 5912 5914 5915 5916 5918 5919 5920 5921 5922 5923 5923 5924 5926 5928 5930 5931 5933 5934 5936 5937 5939 5940 5941 5943 5944 5945 5947 5948 5949 5950 5951 5952 5953 5954 5954 5955 5956 5956 5957 5957 5958 5959 5959 5960 5961 5962 5963 5964 5965 5965 5966 5967 5968 5968 5968 5968 5968 5968 5969 5969 5969 5969
5907 5910 5911 5912 5914 5916 5919 5920 5921 5922 5922 5923 5924 5926 5928 5930 5931 5933 5934 5936 5937 5938 5939 5940 5941 5942 5944 5945 5947 5948 5949 5950 5951 5952 5953 5954 5955 5956 5956 5957 5957 5958 5958 5959 5959 5960 5961 5962 5963 5964 5964 5965 5966 5967 5967 5968 5968 5968 5968 5969 5969 5969 5969
5906 5909 5909 5910 5913 5915 5917 5917 5919 5920 5922 5923 5925 5926 5928 5930 5931 5932 5934 5934 5935 5937 5938 5939 5940 5942 5943 5945 5946 5948 5949 5950 5950 5951 5952 5953 5954 5955 5956 5957 5958 5958 5958 5959 5959 5959 5960 5961 5962 5963 5963 5964 5965 5966 5967 5967 5967 5967 5968 5968 5968 5969 5969
5904 5906 5907 5908 5911 5914 5915 5915 5917 5919 5921 5923 5924 5926 5927 5929 5930 5931 5932 5933 5934 5935 5936 5938 5940 5941 5943 5944 5945 5946 5947 5949 5950 5951 5952 5953 5954 5955 5955 5956 5957 5958 5958 5959 5959 5959 5960 5960 5961 5962 5962 5963 5964 5965 5966 5966 5967 5967 5967 5968 5968 5968 5968
5901 5904 5906 5907 5910 5912 5913 5913 5915 5917 5919 5921 5923 5925 5927 5928 5929 5930 5930 5931 5932 5934 5936 5938 5940 5941 5942 5943 5944 5945 5946 5948 5949 5951 5952 5953 5953 5954 5955 5956 5956 5957 5958 5958 5959 5959 5959 5960 5960 5961 5962 5962 5963 5964 5965 5966 5966 5966 5967 5967 5968 5968 5968
5899 5902 5905 5907 5909 5910 5911 5913 5914 5916 5917 5919 5922 5924 5926 5927 5928 5929 5929 5930 5932 5934 5936 5938 5939 5940 5941 5942 5943 5944 5945 5947 5948 5950 5951 5952 5953 5954 5954 5955 5956 5957 5957 5958 5958 5959 5959 5960 5960 5961 5961 5962 5963 5964 5965 5965 5966 5966 5967 5967 5968 5968 5968
5897 5900 5903 5905 5906 5908 5910 5912 5914 5915 5915 5918 5921 5923 5924 5926 5927 5927 5928 5929 5930 5932 5934 5935 5936 5937 5939 5941 5942 5944 5945 5946 5948 5949 5951 5952 5953 5953 5954 5954 5955 5956 5956 5957 5958 5958 5959 5960 5960 5961 5961 5962 5963 5964 5964 5965 5966 5966 5967 5967 5968 5968 5969
5894 5897 5900 5902 5904 5906 5908 5910 5912 5913 5915 5918 5920 5921 5922 5923 5925 5926 5927 5927 5928 5929 5930 5931 5933 5935 5937 5939 5941 5942 5943 5945 5947 5949 5950 5951 5952 5952 5953 5953 5954 5955 5955 5956 5957 5958 5958 5959 5960 5961 5961 5962 5963 5964 5964 5965 5966 5966 5967 5967 5968 5968 5969
5893 5895 5897 5899 5901 5903 5905 5908 5909 5911 5914 5916 5919 5920 5921 5922 5925 5927 5928 5928 5928 5928 5929 5930 5933 5935 5937 5938 5939 5941 5943 5944 5946 5947 5949 5950 5951 5951 5952 5952 5952 5953 5954 5955 5956 5957 5958 5958 5959 5960 5961 5962 5963 5963 5964 5965 5965 5966 5966 5966 5967 5967 5968
5893 5894 5894 5895 5898 5901 5903 5905 5907 5909 5912 5916 5918 5919 5920 5921 5923 5925 5925 5926 5926 5927 5928 5930 5933 5935 5936 5937 5938 5940 5942 5943 5944 5945 5946 5948 5949 5950 5951 5951 5951 5952 5953 5953 5955 5956 5957 5958 5959 5959 5960 5961 5962 5963 5963 5964 5964 5965 5965 5965 5965 5966 5967
5891 5892 5892 5893 5896 5899 5901 5902 5905 5908 5912 5915 5917 5918 5918 5919 5920 5920 5921 5923 5924 5925 5927 5930 5933 5935 5936 5937 5938 5939 5940 5940 5940 5941 5943 5945 5947 5948 5949 5950 5950 5951 5951 5952 5953 5954 5955 5956 5957 5958 5959 5959 5960 5961 5962 5963 5963 5963 5963 5963 5963 5964 5964
5889 5890 5891 5893 5895 5898 5900 5901 5903 5906 5910 5913 5915 5917 5917 5916 5916 5918 5920 5922 5923 5924 5927 5930 5931 5932 5933 5935 5937 5938 5938 5938 5939 5940 5942 5944 5945 5947 5948 5949 5949 5949 5950 5950 5950 5952 5953 5954 5955 5956 5957 5958 5959 5959 5960 5961 5962 5962 5962 5962 5962 5962 5963
5887 5888 5889 5892 5894 5896 5899 5901 5902 5904 5908 5911 5913 5915 5915 5914 5914 5916 5918 5920 5922 5924 5926 5928 5928 5928 5930 5932 5934 5934 5933 5935 5938 5940 5941 5942 5942 5944 5946 5947 5948 5948 5948 5948 5948 5949 5950 5951 5952 5953 5955 5956 5957 5958 5959 5959 5960 5960 5960 5961 5961 5961 5962
5885 5886 5887 5890 5892 5894 5897 5899 5899 5901 5905 5908 5911 5913 5913 5913 5913 5914 5915 5917 5919 5922 5924 5925 5925 5926 5928 5930 5931 5930 5929 5931 5935 5937 5938 5938 5939 5941 5943 5945 5946 5946 5946 5946 5946 5946 5947 5948 5949 5950 5952 5954 5955 5956 5957 5957 5958 5958 5958 5959 5959 5960 5960
5883 5885 5886 5888 5890 5892 5894 5896 5896 5898 5901 5904 5908 5910 5911 5911 5911 5912 5914 5916 5918 5920 5921 5922 5922 5923 5925 5927 5927 5926 5926 5927 5931 5933 5934 5934 5937 5939 5940 5941 5943 5944 5944 5944 5944 5944 5945 5946 5947 5948 5950 5951 5952 5954 5955 5955 5956 5956 5956 5957 5957 5958 5958
5881 5883 5885 5887 5889 5891 5892 5893 5894 5895 5898 5901 5904 5907 5909 5909 5909 5911 5913 5914 5916 5918 5919 5920 5921 5921 5923 5923 5922 5922 5923 5925 5927 5930 5931 5932 5934 5936 5936 5937 5940 5942 5943 5942 5941 5941 5942 5944 5945 5946 5947 5948 5950 5951 5953 5953 5953 5954 5954 5955 5956 5956 5957
5879 5882 5883 5885 5887 5889 5890 5891 5892 5894 5896 5899 5902 5905 5907 5908 5908 5909 5910 5912 5915 5916 5917 5918 5919 5919 5920 5920 5919 5919 5920 5922 5924 5927 5928 5929 5930 5931 5932 5933 5936 5939 5941 5940 5939 5939 5940 5941 5942 5944 5945 5946 5947 5949 5950 5951 5952 5952 5952 5953 5953 5954 5955
5877 5879 5882 5884 5886 5887 5888 5889 5891 5892 5894 5896 5899 5902 5905 5906 5907 5907 5907 5910 5912 5914 5915 5916 5917 5917 5918 5917 5916 5916 5917 5919 5922 5924 5925 5927 5928 5928 5929 5930 5934 5937 5937 5936 5935 5936 5937 5939 5940 5942 5943 5944 5945 5947 5948 5949 5949 5950 5951 5951 5952 5952 5953
5875 5877 5880 5882 5884 5885 5886 5887 5889 5891 5892 5894 5896 5899 5902 5903 5904 5904 5905 5907 5909 5910 5912 5913 5914 5914 5915 5914 5913 5913 5915 5918 5920 5921 5922 5924 5925 5926 5927 5929 5931 5932 5932 5932 5932 5933 5934 5936 5938 5939 5940 5942 5943 5944 5945 5946 5946 5947 5948 5949 5950 5951 5952
5873 5875 5877 5880 5881 5883 5884 5885 5887 5888 5890 5891 5893 5896 5898 5900 5901 5902 5902 5904 5906 5907 5908 5909 5910 5911 5911 5911 5910 5911 5913 5915 5916 5917 5918 5919 5921 5923 5926 5927 5927 5927 5927 5929 5930 5931 5931 5933 5935 5936 5937 5938 5939 5941 5942 5942 5942 5943 5944 5946 5947 5948 5949
5870 5872 5874 5876 5879 5880 5881 5882 5884 5885 5887 5888 5890 5893 5895 5897 5898 5899 5900 5901 5903 5904 5905 5906 5907 5907 5908 5909 5910 5910 5912 5913 5913 5914 5915 5916 5917 5919 5922 5924 5925 5924 5925 5926 5927 5929 5931 5931 5932 5933 5934 5935 5936 5937 5938 5938 5938 5939 5941 5943 5944 5945 5946
5868 5869 5871 5873 5875 5877 5878 5879 5880 5882 5883 5885 5887 5889 5891 5893 5895 5896 5897 5897 5899 5900 5902 5903 5904 5905 5906 5908 5909 5910 5911 5912 5913 5913 5914 5914 5915 5916 5918 5921 5922 5923 5923 5923 5924 5927 5929 5929 5929 5930 5931 5932 5933 5933 5933 5934 5935 5936 5938 5939 5940 5942 5943
5865 5866 5868 5870 5871 5873 5874 5875 5877 5879 5880 5882 5883 5885 5887 5889 5891 5893 5894 5895 5896 5897 5898 5899 5901 5902 5904 5905 5907 5908 5909 5910 5911 5912 5913 5913 5913 5914 5915 5917 5919 5920 5921 5922 5922 5924 5926 5925 5924 5926 5928 5929 5930 5930 5931 5930 5931 5933 5934 5935 5936 5938 5939
5861 5863 5864 5865 5867 5869 5870 5872 5873 5875 5877 5879 5880 5882 5883 5886 5888 5890 5892 5893 5894 5894 5895 5896 5897 5898 5900 5901 5903 5904 5905 5907 5908 5909 5910 5910 5911 5912 5913 5914 5915 5916 5918 5919 5920 5920 5920 5920 5920 5922 5924 5925 5926 5927 5928 5928 5929 5930 5931 5931 5932 5934 5936
5856 5858 5859 5860 5862 5864 5866 5868 5870 5872 5874 5875 5877 5878 5880 5882 5884 5886 5888 5890 5892 5892 5893 5893 5893 5894 5896 5897 5898 5900 5902 5903 5904 5905 5906 5907 5908 5909 5910 5911 5911 5912 5913 5914 5914 5914 5915 5916 5917 5919 5921 5922 5923 5923 5924 5925 5926 5926 5927 5928 5928 5930 5931
5851 5853 5854 5855 5857 5859 5862 5864 5866 5868 5869 5871 5873 5875 5876 5877 5879 5881 5884 5886 5888 5889 5890 5890 5890 5891 5892 5893 5895 5896 5898 5899 5900 5902 5903 5904 5905 5906 5907 5908 5908 5909 5910 5910 5910 5910 5912 5913 5915 5916 5917 5918 5919 5919 5920 5921 5921 5922 5923 5924 5925 5926 5927
5845 5847 5849 5850 5852 5854 5856 5859 5861 5863 5864 5866 5868 5870 5872 5873 5875 5876 5879 5881 5883 5884 5885 5887 5887 5888 5888 5889 5891 5892 5894 5895 5897 5898 5899 5901 5902 5903 5903 5904 5905 5905 5906 5907 5908 5908 5909 5910 5911 5912 5913 5914 5914 5915 5915 5916 5917 5917 5918 5919 5921 5922 5923
5839 5841 5843 5845 5847 5849 5851 5853 5855 5857 5858 5860 5862 5864 5866 5868 5870 5872 5874 5875 5877 5879 5880 5882 5883 5884 5884 5885 5886 5887 5889 5890 5892 5893 5895 5896 5897 5898 5899 5900 5901 5902 5903 5904 5904 5905 5906 5907 5908 5909 5909 5910 5910 5911 5911 5912 5913 5913 5913 5914 5916 5917 5918
5834 5835 5837 5839 5841 5843 5845 5847 5848 5850 5852 5854 5856 5858 5860 5862 5865 5867 5868 5870 5871 5873 5875 5877 5878 5879 5880 5881 5882 5883 5884 5885 5886 5888 5889 5891 5892 5893 5894 5895 5896 5897 5898 5899 5900 5901 5902 5903 5904 5905 5906 5906 5906 5907 5907 5908 5908 5908 5909 5910 5911 5912 5914
5828 5829 5831 5833 5835 5837 5839 5841 5842 5844 5846 5848 5851 5853 5855 5856 5859 5860 5862 5864 5866 5868 5870 5871 5873 5874 5875 5876 5877 5878 5879 5880 5881 5882 5884 5885 5887 5888 5889 5890 5891 5893 5894 5895 5895 5896 5897 5899 5900 5900 5901 5902 5902 5903 5903 5904 5904 5904 5904 5905 5906 5907 5909
5822 5824 5826 5827 5829 5830 5832 5834 5836 5838 5840 5843 5845 5848 5849 5851 5853 5854 5856 5858 5860 5862 5864 5865 5867 5869 5870 5871 5872 5873 5874 5875 5876 5877 5879 5880 5881 5883 5884 5885 5886 5888 5889 5890 5891 5892 5893 5894 5895 5896 5897 5897 5898 5898 5899 5899 5900 5900 5900 5901 5902 5903 5904
5817 5819 5820 5822 5823 5825 5826 5827 5830 5832 5835 5837 5839 5841 5842 5844 5846 5848 5850 5852 5854 5856 5857 5859 5861 5862 5864 5865 5866 5868 5869 5870 5871 5872 5874 5875 5876 5877 5878 5879 5881 5882 5884 5885 5886 5887 5888 5889 5890 5891 5891 5892 5893 5893 5894 5894 5895 5896 5896 5897 5897 5898 5899
5811 5813 5815 5816 5817 5818 5820 5821 5823 5826 5828 5830 5831 5833 5835 5837 5840 5842 5844 5846 5848 5849 5851 5852 5854 5856 5857 5858 5860 5862 5863 5864 5866 5867 5869 5870 5871 5872 5872 5873 5875 5876 5877 5879 5880 5882 5882 5883 5884 5885 5885 5886 5887 5888 5888 5889 5890 5891 5892 5893 5893 5893 5894
5805 5807 5808 5809 5811 5812 5814 5816 5819 5821 5822 5823 5824 5826 5828 5831 5834 5836 5838 5840 5841 5843 5844 5846 5847 5849 5850 5852 5853 5855 5857 5858 5859 5861 5862 5864 5865 5867 5868 5868 5869 5870 5871 5872 5874 5875 5876 5877 5878 5878 5879 5881 5882 5882 5883 5883 5884 5885 5887 5887 5888 5888 5889
5798 5800 5801 5802 5804 5807 5809 5812 5815 5816 5816 5817 5818 5820 5822 5824 5827 5829 5831 5833 5835 5836 5838 5839 5841 5842 5844 5845 5847 5848 5850 5852 5853 5855 5856 5857 5858 5860 5862 5863 5865 5865 5865 5866 5867 5868 5869 5870 5871 5872 5873 5875 5876 5877 5878 5878 5878 5879 5880 5881 5882 5883 5883
5791 5793 5794 5796 5798 5801 5804 5807 5809 5809 5810 5811 5812 5813 5815 5818 5820 5822 5824 5825 5827 5829 5831 5832 5834 5835 5837 5839 5840 5842 5844 5845 5847 5848 5850 5851 5851 5852 5854 5856 5858 5859 5859 5860 5861 5862 5863 5864 5864 5866 5867 5868 5869 5870 5871 5872 5872 5873 5874 5875 5876 5877 5878
5784 5786 5788 5790 5793 5795 5797 5799 5801 5802 5802 5803 5805 5807 5809 5811 5813 5814 5816 5818 5819 5821 5823 5825 5826 5828 5830 5831 5833 5835 5837 5838 5840 5841 5843 5844 5844 5845 5846 5848 5850 5851 5852 5853 5854 5855 5856 5857 5858 5859 5859 5860 5861 5862 5863 5865 5866 5867 5867 5868 5869 5870 5871
5778 5780 5782 5785 5787 5788 5789 5791 5793 5795 5795 5797 5799 5801 5803 5805 5806 5807 5809 5810 5812 5813 5815 5817 5819 5820 5822 5824 5825 5827 5828 5830 5832 5833 5835 5836 5837 5838 5838 5840 5841 5842 5844 5846 5847 5848 5849 5850 5851 5851 5852 5853 5854 5855 5855 5856 5858 5859 5860 5861 5861 5863 5864